Cloud_Cover
34 61 99 20 100 100 100 100 50 32 95 100 100 5 15 9 17 5 40 6 32 87 100 100 100 43 5 5 5 6 43 5 22 5 12 4 4 5 5 17 11 7 27
100 100 71 94 100 100 100 98 82 66 98 100 74 69 23 5 8 5 6 25 29 5 5 30 100 28 11 11 5 92 35 35 33 13 5 4 0 1 5 5 5 5 3
95 34 22 96 100 100 98 84 83 64 90 100 100 100 23 5 5 3 12 45 5 5 5 1 5 85 5 26 55 83 24 5 1 3 2 1 5 0 0 0 0 0 0
36 3 8 88 100 100 56 5 95 71 100 99 100 100 26 4 3 0 5 5 3 1 1 0 2 73 100 100 100 11 5 1 5 0 1 5 0 0 0 0 0 0 0
10 5 24 100 78 64 5 68 80 100 99 85 98 9 5 0 0 0 0 0 1 2 1 5 5 32 99 100 15 4 0 0 0 0 0 0 0 0 0 0 0 0 0
14 24 15 68 1 5 4 7 10 40 32 70 17 4 4 2 0 0 0 0 4 5 3 3 3 0 0 0 5 18 0 0 0 0 0 0 0 0 0 0 0 0 1
13 68 5 33 0 0 4 1 3 1 5 1 0 4 4 5 2 2 0 1 0 0 0 0 0 2 5 0 0 0 0 0 0 0 0 0 0 0 0 0 5 5 5
10 16 45 5 4 0 0 4 3 5 5 3 3 5 3 3 4 4 0 0 0 0 1 3 0 0 0 0 0 0 0 0 0 0 0 0 0 5 5 5 20 23 51
42 5 5 11 20 0 0 2 4 2 2 5 4 1 2 3 2 0 0 62 31 0 0 0 4 0 0 0 1 2 0 0 2 3 5 5 41 5 7 48 77 99 100
40 5 5 41 77 5 0 0 2 0 0 3 4 0 1 0 0 0 0 2 75 11 4 3 1 0 4 5 5 5 5 5 5 5 5 5 20 60 18 15 53 91 100
100 81 5 53 10 45 1 0 0 4 5 3 27 0 2 5 0 1 5 4 49 75 29 5 5 5 25 82 59 7 5 8 5 5 5 5 5 5 5 13 51 99 100
100 58 5 100 30 6 13 0 5 5 5 4 25 4 5 11 23 40 87 100 98 49 100 83 5 16 5 66 94 88 5 56 32 5 5 5 5 9 16 32 56 37 18
99 54 4 57 55 5 56 0 5 5 5 2 2 5 12 98 100 100 91 97 42 10 46 100 96 18 8 27 5 14 6 73 93 100 99 100 73 83 92 100 100 100 94
3 93 3 4 37 5 5 5 3 5 4 5 3 7 84 100 82 39 99 87 37 21 100 18 56 57 7 5 8 6 9 6 8 5 28 71 61 51 92 100 100 100 100
0 4 1 3 5 17 26 37 5 5 5 4 1 14 100 5 4 3 1 48 5 5 25 10 100 75 57 34 81 92 39 42 7 12 18 5 70 99 100 99 100 77 99
0 0 0 0 5 5 64 5 6 5 33 5 5 5 5 95 90 8 5 88 49 28 5 5 8 68 53 44 73 74 60 83 98 91 92 85 89 67 63 100 100 100 100
0 0 4 0 4 2 22 39 5 0 5 2 5 97 88 30 7 7 5 13 78 11 80 100 15 14 75 100 100 100 79 98 89 99 100 79 67 93 94 98 98 91 99
2 0 0 0 0 1 8 18 33 5 19 6 49 60 40 19 4 4 6 32 26 87 74 61 100 99 44 91 100 96 97 91 100 100 100 100 100 100 100 99 91 100 100
4 0 0 0 0 0 5 24 87 65 60 5 7 73 5 5 5 5 30 90 79 7 8 80 52 35 82 100 100 100 100 100 100 100 100 100 100 100 72 78 89 96 100
1 0 0 0 0 0 0 0 5 5 5 5 5 6 5 8 5 5 36 5 65 4 1 5 5 5 19 100 100 100 100 100 100 100 97 94 100 92 98 98 94 85 100
1 10 0 0 0 1 3 0 0 2 5 21 27 5 3 2 7 8 5 3 5 10 16 2 5 25 32 100 100 100 100 100 100 100 100 94 67 53 33 100 77 72 82
11 31 25 0 0 0 7 93 100 94 5 5 16 5 0 0 16 2 11 14 5 22 95 5 5 21 10 36 100 97 100 100 100 100 100 96 97 90 98 49 100 88 100
3 21 28 9 1 8 7 100 100 10 5 3 5 2 0 0 2 0 74 63 90 99 39 75 100 90 32 59 82 100 83 94 100 88 99 97 66 79 97 100 99 91 100
6 13 42 28 21 7 6 100 83 5 5 3 5 4 0 0 0 0 5 2 0 4 10 6 3 4 28 9 27 39 63 98 82 87 96 100 98 99 100 100 100 87 100
17 5 0 21 35 15 33 100 38 18 34 5 5 5 100 82 81 8 5 4 14 5 32 4 13 14 0 51 95 70 100 99 100 100 99 98 100 100 100 100 91 100 100
100 68 54 41 7 5 100 100 100 81 64 100 27 2 4 21 86 100 100 100 100 100 100 100 100 100 100 78 50 54 78 100 100 100 93 100 100 100 100 100 81 99 75